{"data":{"norad_id":63095,"intl_designator":"2025-037U","name":"STARLINK-32907","alt_names":[],"object_type":"PAYLOAD","status":"ACTIVE","operator":null,"country":"US","launch_date":"2025-02-23","launch_site_code":"AFWTR","launch_vehicle":null,"mission":null,"orbit_class":"UNKNOWN","rcs_meters":null,"size_class":null,"mass_kg":null,"dimensions":null,"purposes":["comms"],"wikipedia_slug":null,"has_3d_model":false,"image_url":null,"decayed_at":null,"tle_current":{"epoch":"2026-09-21T21:26:04.983072Z","epoch_age_seconds":41958,"freshness":"FRESH","line1":"1 63095U 25037U   26264.89311323  .00012116  00000+0  42511-3 0  9996","line2":"2 63095  70.0012 217.2741 0002362 274.5166  85.5740 15.29592564 88006","mean_motion":15.29592564,"eccentricity":0.0002362,"inclination_deg":70.0012,"raan_deg":217.2741,"arg_perigee_deg":274.5166,"mean_anomaly_deg":85.574,"bstar":0.00042511,"rev_number":8800,"period_min":94.142717079788,"perigee_km":475.41017371868,"apogee_km":478.64855430904,"semimajor_km":6855.1663640139,"source":"CELESTRAK","updated_at":"2026-09-22T09:00:49.761291Z"}}}